User: anonymous   Login
Location: Corralito
(10.2667°N, 66.9500°W)
Time: 15:29:51
(UTC+00:00)
Language:

Cosmos 2173 Rocket - Orbit

View from above orbital plane
View from above orbital plane
View from above satellite
View from above satellite

Ground track
Ground track

The orbit data is extracted from the following two-line orbital elements,

1 21797U 91081B   23270.78824708  .00000135  00000-0  11948-3 0  9998
2 21797  82.9557 158.5888 0038637 139.6732 286.0505 13.77637562600161
Epoch (UTC): 27 September 2023 18:55:04
Eccentricity: 0.0038637
inclination: 82.9557°
perigee height: 944 km
apogee height: 1000 km
right ascension of ascending node: 158.5888°
argument of perigee: 139.6732°
revolutions per day: 13.77637562
mean anomaly at epoch: 286.0505°
orbit number at epoch: 60016

The dashed part of the orbit path shows where the satellite is in the earth's shadow,  

DLR